Date_Time,Julian_Date,Latitude,Longitude,Instrument_Depth,U,V,Speed,Direction
(yyyy-mm-dd hh:mn:ss UTC),(JD),(+ deg. North),(+ deg. East),(m),(cm/s),(cm/s),(cm/s),(deg True)
1983-05-24 19:00:00 UTC,2445479.291667,28.7317,-95.2428,0109,13.99,-0.49,14.0000,92.0000
1983-05-24 19:30:00 UTC,2445479.312500,28.7317,-95.2428,0109,13.00,0.23,13.0000,89.0000
1983-05-24 20:00:00 UTC,2445479.333333,28.7317,-95.2428,0109,11.98,-0.63,12.0000,93.0000
1983-05-24 20:30:00 UTC,2445479.354167,28.7317,-95.2428,0109,11.82,-2.08,12.0000,100.0000
1983-05-24 21:00:00 UTC,2445479.375000,28.7317,-95.2428,0109,11.35,-3.91,12.0000,109.0000
1983-05-24 21:30:00 UTC,2445479.395833,28.7317,-95.2428,0109,11.14,-6.70,13.0000,121.0000
1983-05-24 22:00:00 UTC,2445479.416667,28.7317,-95.2428,0109,9.35,-9.03,13.0000,134.0000
1983-05-24 22:30:00 UTC,2445479.437500,28.7317,-95.2428,0109,7.64,-10.52,13.0000,144.0000
1983-05-24 23:00:00 UTC,2445479.458333,28.7317,-95.2428,0109,6.89,-11.02,13.0000,148.0000
1983-05-24 23:30:00 UTC,2445479.479167,28.7317,-95.2428,0109,6.79,-12.24,14.0000,151.0000
1983-05-25 00:00:00 UTC,2445479.500000,28.7317,-95.2428,0109,5.73,-14.94,16.0000,159.0000
1983-05-25 00:30:00 UTC,2445479.520833,28.7317,-95.2428,0109,3.74,-17.61,18.0000,168.0000
1983-05-25 01:00:00 UTC,2445479.541667,28.7317,-95.2428,0109,2.19,-17.87,18.0000,173.0000
1983-05-25 01:30:00 UTC,2445479.562500,28.7317,-95.2428,0109,1.78,-16.91,17.0000,174.0000
1983-05-25 02:00:00 UTC,2445479.583333,28.7317,-95.2428,0109,2.78,-15.76,16.0000,170.0000
1983-05-25 02:30:00 UTC,2445479.604167,28.7317,-95.2428,0109,3.62,-13.52,14.0000,165.0000
1983-05-25 03:00:00 UTC,2445479.625000,28.7317,-95.2428,0109,4.02,-12.36,13.0000,162.0000
1983-05-25 03:30:00 UTC,2445479.645833,28.7317,-95.2428,0109,3.94,-10.27,11.0000,159.0000
1983-05-25 04:00:00 UTC,2445479.666667,28.7317,-95.2428,0109,3.66,-8.22,9.0000,156.0000
1983-05-25 04:30:00 UTC,2445479.687500,28.7317,-95.2428,0109,3.81,-5.87,7.0000,147.0000
1983-05-25 05:00:00 UTC,2445479.708333,28.7317,-95.2428,0109,4.53,-3.94,6.0000,131.0000
1983-05-25 05:30:00 UTC,2445479.729167,28.7317,-95.2428,0109,4.37,-2.42,5.0000,119.0000
1983-05-25 06:00:00 UTC,2445479.750000,28.7317,-95.2428,0109,5.77,-1.65,6.0000,106.0000
1983-05-25 06:30:00 UTC,2445479.770833,28.7317,-95.2428,0109,6.00,-0.21,6.0000,92.0000
1983-05-25 07:00:00 UTC,2445479.791667,28.7317,-95.2428,0109,7.94,0.97,8.0000,83.0000
1983-05-25 07:30:00 UTC,2445479.812500,28.7317,-95.2428,0109,7.92,1.11,8.0000,82.0000
1983-05-25 08:00:00 UTC,2445479.833333,28.7317,-95.2428,0109,8.91,1.25,9.0000,82.0000
1983-05-25 08:30:00 UTC,2445479.854167,28.7317,-95.2428,0109,8.69,2.33,9.0000,75.0000
1983-05-25 09:00:00 UTC,2445479.875000,28.7317,-95.2428,0109,8.28,3.52,9.0000,67.0000
1983-05-25 09:30:00 UTC,2445479.895833,28.7317,-95.2428,0109,7.63,4.77,9.0000,58.0000
1983-05-25 10:00:00 UTC,2445479.916667,28.7317,-95.2428,0109,7.31,6.82,10.0000,47.0000
1983-05-25 10:30:00 UTC,2445479.937500,28.7317,-95.2428,0109,6.88,9.83,12.0000,35.0000
1983-05-25 11:00:00 UTC,2445479.958333,28.7317,-95.2428,0109,5.92,12.69,14.0000,25.0000
1983-05-25 11:30:00 UTC,2445479.979167,28.7317,-95.2428,0109,5.47,15.04,16.0000,20.0000
1983-05-25 12:00:00 UTC,2445480.000000,28.7317,-95.2428,0109,5.21,15.13,16.0000,19.0000
1983-05-25 12:30:00 UTC,2445480.020833,28.7317,-95.2428,0109,5.81,15.97,17.0000,20.0000
1983-05-25 13:00:00 UTC,2445480.041667,28.7317,-95.2428,0109,6.37,15.76,17.0000,22.0000
1983-05-25 13:30:00 UTC,2445480.062500,28.7317,-95.2428,0109,6.74,16.69,18.0000,22.0000
1983-05-25 14:00:00 UTC,2445480.083333,28.7317,-95.2428,0109,7.12,17.62,19.0000,22.0000
1983-05-25 14:30:00 UTC,2445480.104167,28.7317,-95.2428,0109,7.53,19.61,21.0000,21.0000
1983-05-25 15:00:00 UTC,2445480.125000,28.7317,-95.2428,0109,7.52,20.67,22.0000,20.0000
1983-05-25 15:30:00 UTC,2445480.145833,28.7317,-95.2428,0109,7.16,20.80,22.0000,19.0000
1983-05-25 16:00:00 UTC,2445480.166667,28.7317,-95.2428,0109,6.84,19.86,21.0000,19.0000
1983-05-25 16:30:00 UTC,2445480.187500,28.7317,-95.2428,0109,7.17,18.67,20.0000,21.0000
1983-05-25 17:00:00 UTC,2445480.208333,28.7317,-95.2428,0109,7.42,17.49,19.0000,23.0000
1983-05-25 17:30:00 UTC,2445480.229167,28.7317,-95.2428,0109,7.32,16.44,18.0000,24.0000
1983-05-25 18:00:00 UTC,2445480.250000,28.7317,-95.2428,0109,7.61,16.31,18.0000,25.0000
1983-05-25 18:30:00 UTC,2445480.270833,28.7317,-95.2428,0109,7.45,15.28,17.0000,26.0000
1983-05-25 19:00:00 UTC,2445480.291667,28.7317,-95.2428,0109,6.76,14.50,16.0000,25.0000
1983-05-25 19:30:00 UTC,2445480.312500,28.7317,-95.2428,0109,6.36,12.47,14.0000,27.0000
1983-05-25 20:00:00 UTC,2445480.333333,28.7317,-95.2428,0109,6.18,10.29,12.0000,31.0000
1983-05-25 20:30:00 UTC,2445480.354167,28.7317,-95.2428,0109,6.15,9.12,11.0000,34.0000
1983-05-25 21:00:00 UTC,2445480.375000,28.7317,-95.2428,0109,6.02,7.99,10.0000,37.0000
1983-05-25 21:30:00 UTC,2445480.395833,28.7317,-95.2428,0109,6.02,6.69,9.0000,42.0000
1983-05-25 22:00:00 UTC,2445480.416667,28.7317,-95.2428,0109,5.46,5.85,8.0000,43.0000
1983-05-25 22:30:00 UTC,2445480.437500,28.7317,-95.2428,0109,5.03,6.22,8.0000,39.0000
1983-05-25 23:00:00 UTC,2445480.458333,28.7317,-95.2428,0109,3.91,5.80,7.0000,34.0000
1983-05-25 23:30:00 UTC,2445480.479167,28.7317,-95.2428,0109,3.71,5.94,7.0000,32.0000
1983-05-26 00:00:00 UTC,2445480.500000,28.7317,-95.2428,0109,4.02,5.73,7.0000,35.0000
1983-05-26 00:30:00 UTC,2445480.520833,28.7317,-95.2428,0109,4.59,5.28,7.0000,41.0000
1983-05-26 01:00:00 UTC,2445480.541667,28.7317,-95.2428,0109,5.85,5.46,8.0000,47.0000
1983-05-26 01:30:00 UTC,2445480.562500,28.7317,-95.2428,0109,6.30,4.93,8.0000,52.0000
1983-05-26 02:00:00 UTC,2445480.583333,28.7317,-95.2428,0109,7.46,5.03,9.0000,56.0000
1983-05-26 02:30:00 UTC,2445480.604167,28.7317,-95.2428,0109,8.09,5.88,10.0000,54.0000
1983-05-26 03:00:00 UTC,2445480.625000,28.7317,-95.2428,0109,8.17,7.36,11.0000,48.0000
1983-05-26 03:30:00 UTC,2445480.645833,28.7317,-95.2428,0109,8.03,8.92,12.0000,42.0000
1983-05-26 04:00:00 UTC,2445480.666667,28.7317,-95.2428,0109,7.82,10.38,13.0000,37.0000
1983-05-26 04:30:00 UTC,2445480.687500,28.7317,-95.2428,0109,8.17,12.58,15.0000,33.0000
1983-05-26 05:00:00 UTC,2445480.708333,28.7317,-95.2428,0109,7.51,14.13,16.0000,28.0000
1983-05-26 05:30:00 UTC,2445480.729167,28.7317,-95.2428,0109,7.32,16.44,18.0000,24.0000
1983-05-26 06:00:00 UTC,2445480.750000,28.7317,-95.2428,0109,7.17,18.67,20.0000,21.0000
1983-05-26 06:30:00 UTC,2445480.770833,28.7317,-95.2428,0109,7.49,21.75,23.0000,19.0000
1983-05-26 07:00:00 UTC,2445480.791667,28.7317,-95.2428,0109,8.14,23.64,25.0000,19.0000
1983-05-26 07:30:00 UTC,2445480.812500,28.7317,-95.2428,0109,9.23,25.37,27.0000,20.0000
1983-05-26 08:00:00 UTC,2445480.833333,28.7317,-95.2428,0109,9.12,26.47,28.0000,19.0000
1983-05-26 08:30:00 UTC,2445480.854167,28.7317,-95.2428,0109,8.27,28.84,30.0000,16.0000
1983-05-26 09:00:00 UTC,2445480.875000,28.7317,-95.2428,0109,6.65,31.30,32.0000,12.0000
1983-05-26 09:30:00 UTC,2445480.895833,28.7317,-95.2428,0109,5.32,33.58,34.0000,9.0000
1983-05-26 10:00:00 UTC,2445480.916667,28.7317,-95.2428,0109,5.63,35.56,36.0000,9.0000
1983-05-26 10:30:00 UTC,2445480.937500,28.7317,-95.2428,0109,6.43,36.44,37.0000,10.0000
1983-05-26 11:00:00 UTC,2445480.958333,28.7317,-95.2428,0109,7.90,37.17,38.0000,12.0000
1983-05-26 11:30:00 UTC,2445480.979167,28.7317,-95.2428,0109,9.43,37.84,39.0000,14.0000
1983-05-26 12:00:00 UTC,2445481.000000,28.7317,-95.2428,0109,10.75,37.49,39.0000,16.0000
1983-05-26 12:30:00 UTC,2445481.020833,28.7317,-95.2428,0109,12.05,34.98,37.0000,19.0000
1983-05-26 13:00:00 UTC,2445481.041667,28.7317,-95.2428,0109,12.54,32.68,35.0000,21.0000
1983-05-26 13:30:00 UTC,2445481.062500,28.7317,-95.2428,0109,12.36,30.60,33.0000,22.0000
1983-05-26 14:00:00 UTC,2445481.083333,28.7317,-95.2428,0109,13.02,29.23,32.0000,24.0000
1983-05-26 14:30:00 UTC,2445481.104167,28.7317,-95.2428,0109,14.03,28.76,32.0000,26.0000
1983-05-26 15:00:00 UTC,2445481.125000,28.7317,-95.2428,0109,15.44,30.29,34.0000,27.0000
1983-05-26 15:30:00 UTC,2445481.145833,28.7317,-95.2428,0109,15.96,30.02,34.0000,28.0000
1983-05-26 16:00:00 UTC,2445481.166667,28.7317,-95.2428,0109,17.00,28.29,33.0000,31.0000
1983-05-26 16:30:00 UTC,2445481.187500,28.7317,-95.2428,0109,18.35,26.21,32.0000,35.0000
1983-05-26 17:00:00 UTC,2445481.208333,28.7317,-95.2428,0109,18.88,23.31,30.0000,39.0000
1983-05-26 17:30:00 UTC,2445481.229167,28.7317,-95.2428,0109,18.37,21.13,28.0000,41.0000
1983-05-26 18:00:00 UTC,2445481.250000,28.7317,-95.2428,0109,17.36,20.68,27.0000,40.0000
1983-05-26 18:30:00 UTC,2445481.270833,28.7317,-95.2428,0109,16.36,20.21,26.0000,39.0000
1983-05-26 19:00:00 UTC,2445481.291667,28.7317,-95.2428,0109,15.05,19.97,25.0000,37.0000
1983-05-26 19:30:00 UTC,2445481.312500,28.7317,-95.2428,0109,13.98,20.73,25.0000,34.0000
1983-05-26 20:00:00 UTC,2445481.333333,28.7317,-95.2428,0109,11.85,19.71,23.0000,31.0000
1983-05-26 20:30:00 UTC,2445481.354167,28.7317,-95.2428,0109,9.99,19.60,22.0000,27.0000
1983-05-26 21:00:00 UTC,2445481.375000,28.7317,-95.2428,0109,8.13,18.27,20.0000,24.0000
1983-05-26 21:30:00 UTC,2445481.395833,28.7317,-95.2428,0109,6.64,15.65,17.0000,23.0000
1983-05-26 22:00:00 UTC,2445481.416667,28.7317,-95.2428,0109,5.69,12.79,14.0000,24.0000
1983-05-26 22:30:00 UTC,2445481.437500,28.7317,-95.2428,0109,5.26,10.79,12.0000,26.0000
1983-05-26 23:00:00 UTC,2445481.458333,28.7317,-95.2428,0109,5.00,8.66,10.0000,30.0000
1983-05-26 23:30:00 UTC,2445481.479167,28.7317,-95.2428,0109,4.41,5.44,7.0000,39.0000
1983-05-27 00:00:00 UTC,2445481.500000,28.7317,-95.2428,0109,4.73,3.69,6.0000,52.0000
1983-05-27 00:30:00 UTC,2445481.520833,28.7317,-95.2428,0109,3.71,1.50,4.0000,68.0000
1983-05-27 01:00:00 UTC,2445481.541667,28.7317,-95.2428,0109,2.90,-0.78,3.0000,105.0000
1983-05-27 01:30:00 UTC,2445481.562500,28.7317,-95.2428,0109,1.63,-2.52,3.0000,147.0000
1983-05-27 02:00:00 UTC,2445481.583333,28.7317,-95.2428,0109,1.12,-4.87,5.0000,167.0000
1983-05-27 02:30:00 UTC,2445481.604167,28.7317,-95.2428,0109,0.52,-5.98,6.0000,175.0000
1983-05-27 03:00:00 UTC,2445481.625000,28.7317,-95.2428,0109,0.49,-6.98,7.0000,176.0000
1983-05-27 03:30:00 UTC,2445481.645833,28.7317,-95.2428,0109,0.70,-7.97,8.0000,175.0000
1983-05-27 04:00:00 UTC,2445481.666667,28.7317,-95.2428,0109,1.05,-9.95,10.0000,174.0000
1983-05-27 04:30:00 UTC,2445481.687500,28.7317,-95.2428,0109,1.41,-8.89,9.0000,171.0000
1983-05-27 05:00:00 UTC,2445481.708333,28.7317,-95.2428,0109,1.94,-7.76,8.0000,166.0000
1983-05-27 05:30:00 UTC,2445481.729167,28.7317,-95.2428,0109,2.39,-6.58,7.0000,160.0000
1983-05-27 06:00:00 UTC,2445481.750000,28.7317,-95.2428,0109,2.58,-4.29,5.0000,149.0000
1983-05-27 06:30:00 UTC,2445481.770833,28.7317,-95.2428,0109,2.99,-0.21,3.0000,94.0000
1983-05-27 07:00:00 UTC,2445481.791667,28.7317,-95.2428,0109,3.66,3.41,5.0000,47.0000
1983-05-27 07:30:00 UTC,2445481.812500,28.7317,-95.2428,0109,5.04,4.86,7.0000,46.0000
1983-05-27 08:00:00 UTC,2445481.833333,28.7317,-95.2428,0109,5.36,4.50,7.0000,50.0000
1983-05-27 08:30:00 UTC,2445481.854167,28.7317,-95.2428,0109,5.03,3.27,6.0000,57.0000
1983-05-27 09:00:00 UTC,2445481.875000,28.7317,-95.2428,0109,5.35,2.72,6.0000,63.0000
1983-05-27 09:30:00 UTC,2445481.895833,28.7317,-95.2428,0109,6.69,2.05,7.0000,73.0000
1983-05-27 10:00:00 UTC,2445481.916667,28.7317,-95.2428,0109,7.99,0.42,8.0000,87.0000
1983-05-27 10:30:00 UTC,2445481.937500,28.7317,-95.2428,0109,10.00,-0.17,10.0000,91.0000
1983-05-27 11:00:00 UTC,2445481.958333,28.7317,-95.2428,0109,11.97,0.84,12.0000,86.0000
1983-05-27 11:30:00 UTC,2445481.979167,28.7317,-95.2428,0109,14.99,-0.52,15.0000,92.0000
1983-05-27 12:00:00 UTC,2445482.000000,28.7317,-95.2428,0109,16.42,-4.40,17.0000,105.0000
1983-05-27 12:30:00 UTC,2445482.020833,28.7317,-95.2428,0109,16.69,-6.74,18.0000,112.0000
1983-05-27 13:00:00 UTC,2445482.041667,28.7317,-95.2428,0109,16.18,-7.89,18.0000,116.0000
1983-05-27 13:30:00 UTC,2445482.062500,28.7317,-95.2428,0109,14.92,-10.07,18.0000,124.0000
1983-05-27 14:00:00 UTC,2445482.083333,28.7317,-95.2428,0109,14.77,-11.96,19.0000,129.0000
1983-05-27 14:30:00 UTC,2445482.104167,28.7317,-95.2428,0109,15.54,-12.59,20.0000,129.0000
1983-05-27 15:00:00 UTC,2445482.125000,28.7317,-95.2428,0109,16.09,-13.50,21.0000,130.0000
1983-05-27 15:30:00 UTC,2445482.145833,28.7317,-95.2428,0109,16.09,-13.50,21.0000,130.0000
1983-05-27 16:00:00 UTC,2445482.166667,28.7317,-95.2428,0109,15.54,-12.59,20.0000,129.0000
1983-05-27 16:30:00 UTC,2445482.187500,28.7317,-95.2428,0109,14.55,-12.21,19.0000,130.0000
1983-05-27 17:00:00 UTC,2445482.208333,28.7317,-95.2428,0109,15.54,-12.59,20.0000,129.0000
1983-05-27 17:30:00 UTC,2445482.229167,28.7317,-95.2428,0109,15.54,-12.59,20.0000,129.0000
1983-05-27 18:00:00 UTC,2445482.250000,28.7317,-95.2428,0109,15.32,-12.86,20.0000,130.0000
1983-05-27 18:30:00 UTC,2445482.270833,28.7317,-95.2428,0109,14.55,-12.21,19.0000,130.0000
1983-05-27 19:00:00 UTC,2445482.291667,28.7317,-95.2428,0109,14.55,-12.21,19.0000,130.0000
1983-05-27 19:30:00 UTC,2445482.312500,28.7317,-95.2428,0109,13.16,-12.28,18.0000,133.0000
1983-05-27 20:00:00 UTC,2445482.333333,28.7317,-95.2428,0109,12.04,-13.38,18.0000,138.0000
1983-05-27 20:30:00 UTC,2445482.354167,28.7317,-95.2428,0109,11.43,-15.17,19.0000,143.0000
1983-05-27 21:00:00 UTC,2445482.375000,28.7317,-95.2428,0109,10.89,-16.77,20.0000,147.0000
1983-05-27 21:30:00 UTC,2445482.395833,28.7317,-95.2428,0109,9.86,-18.54,21.0000,152.0000
1983-05-27 22:00:00 UTC,2445482.416667,28.7317,-95.2428,0109,7.52,-20.67,22.0000,160.0000
1983-05-27 22:30:00 UTC,2445482.437500,28.7317,-95.2428,0109,5.81,-23.29,24.0000,166.0000
1983-05-27 23:00:00 UTC,2445482.458333,28.7317,-95.2428,0109,4.96,-25.52,26.0000,169.0000
1983-05-27 23:30:00 UTC,2445482.479167,28.7317,-95.2428,0109,3.90,-27.73,28.0000,172.0000
1983-05-28 00:00:00 UTC,2445482.500000,28.7317,-95.2428,0109,2.09,-29.93,30.0000,176.0000
1983-05-28 00:30:00 UTC,2445482.520833,28.7317,-95.2428,0109,1.12,-31.98,32.0000,178.0000
1983-05-28 01:00:00 UTC,2445482.541667,28.7317,-95.2428,0109,0.59,-33.99,34.0000,179.0000
1983-05-28 01:30:00 UTC,2445482.562500,28.7317,-95.2428,0109,0.63,-35.99,36.0000,179.0000
1983-05-28 02:00:00 UTC,2445482.583333,28.7317,-95.2428,0109,0.00,-38.00,38.0000,180.0000
1983-05-28 02:30:00 UTC,2445482.604167,28.7317,-95.2428,0109,-0.68,-38.99,39.0000,181.0000
1983-05-28 03:00:00 UTC,2445482.625000,28.7317,-95.2428,0109,0.00,-39.00,39.0000,180.0000
1983-05-28 03:30:00 UTC,2445482.645833,28.7317,-95.2428,0109,-1.29,-36.98,37.0000,182.0000
1983-05-28 04:00:00 UTC,2445482.666667,28.7317,-95.2428,0109,-6.24,-29.34,30.0000,192.0000
1983-05-28 04:30:00 UTC,2445482.687500,28.7317,-95.2428,0109,-13.38,-14.86,20.0000,222.0000
1983-05-28 05:00:00 UTC,2445482.708333,28.7317,-95.2428,0109,-17.98,-0.94,18.0000,267.0000
1983-05-28 05:30:00 UTC,2445482.729167,28.7317,-95.2428,0109,-16.91,6.16,18.0000,290.0000
1983-05-28 06:00:00 UTC,2445482.750000,28.7317,-95.2428,0109,-14.50,6.76,16.0000,295.0000
1983-05-28 06:30:00 UTC,2445482.770833,28.7317,-95.2428,0109,-13.70,6.10,15.0000,294.0000
1983-05-28 07:00:00 UTC,2445482.791667,28.7317,-95.2428,0109,-12.79,5.69,14.0000,294.0000
1983-05-28 07:30:00 UTC,2445482.812500,28.7317,-95.2428,0109,-9.61,2.76,10.0000,286.0000
1983-05-28 08:00:00 UTC,2445482.833333,28.7317,-95.2428,0109,-5.91,-1.04,6.0000,260.0000
1983-05-28 08:30:00 UTC,2445482.854167,28.7317,-95.2428,0109,-2.12,-2.12,3.0000,225.0000
1983-05-28 09:00:00 UTC,2445482.875000,28.7317,-95.2428,0109,0.14,-2.00,2.0000,176.0000
1983-05-28 09:30:00 UTC,2445482.895833,28.7317,-95.2428,0109,0.63,-3.95,4.0000,171.0000
1983-05-28 10:00:00 UTC,2445482.916667,28.7317,-95.2428,0109,0.26,-4.99,5.0000,177.0000
1983-05-28 10:30:00 UTC,2445482.937500,28.7317,-95.2428,0109,-0.42,-5.99,6.0000,184.0000
1983-05-28 11:00:00 UTC,2445482.958333,28.7317,-95.2428,0109,-2.07,-7.73,8.0000,195.0000
1983-05-28 11:30:00 UTC,2445482.979167,28.7317,-95.2428,0109,-4.69,-8.83,10.0000,208.0000
1983-05-28 12:00:00 UTC,2445483.000000,28.7317,-95.2428,0109,-6.31,-9.01,11.0000,215.0000
1983-05-28 12:30:00 UTC,2445483.020833,28.7317,-95.2428,0109,-7.46,-10.65,13.0000,215.0000
1983-05-28 13:00:00 UTC,2445483.041667,28.7317,-95.2428,0109,-9.03,-11.98,15.0000,217.0000
1983-05-28 13:30:00 UTC,2445483.062500,28.7317,-95.2428,0109,-11.15,-12.83,17.0000,221.0000
1983-05-28 14:00:00 UTC,2445483.083333,28.7317,-95.2428,0109,-12.50,-12.95,18.0000,224.0000
1983-05-28 14:30:00 UTC,2445483.104167,28.7317,-95.2428,0109,-13.16,-12.28,18.0000,227.0000
1983-05-28 15:00:00 UTC,2445483.125000,28.7317,-95.2428,0109,-14.38,-10.83,18.0000,233.0000
1983-05-28 15:30:00 UTC,2445483.145833,28.7317,-95.2428,0109,-16.29,-9.79,19.0000,239.0000
1983-05-28 16:00:00 UTC,2445483.166667,28.7317,-95.2428,0109,-16.45,-9.50,19.0000,240.0000
1983-05-28 16:30:00 UTC,2445483.187500,28.7317,-95.2428,0109,-15.43,-9.27,18.0000,239.0000
1983-05-28 17:00:00 UTC,2445483.208333,28.7317,-95.2428,0109,-13.11,-9.18,16.0000,235.0000
1983-05-28 17:30:00 UTC,2445483.229167,28.7317,-95.2428,0109,-10.57,-9.18,14.0000,229.0000
1983-05-28 18:00:00 UTC,2445483.250000,28.7317,-95.2428,0109,-8.53,-9.81,13.0000,221.0000
1983-05-28 18:30:00 UTC,2445483.270833,28.7317,-95.2428,0109,-5.26,-10.79,12.0000,206.0000
1983-05-28 19:00:00 UTC,2445483.291667,28.7317,-95.2428,0109,-2.03,-12.84,13.0000,189.0000
1983-05-28 19:30:00 UTC,2445483.312500,28.7317,-95.2428,0109,0.00,-14.00,14.0000,180.0000
1983-05-28 20:00:00 UTC,2445483.333333,28.7317,-95.2428,0109,-0.91,-12.97,13.0000,184.0000
1983-05-28 20:30:00 UTC,2445483.354167,28.7317,-95.2428,0109,-2.10,-10.80,11.0000,191.0000
1983-05-28 21:00:00 UTC,2445483.375000,28.7317,-95.2428,0109,-1.05,-9.95,10.0000,186.0000
1983-05-28 21:30:00 UTC,2445483.395833,28.7317,-95.2428,0109,1.05,-11.95,12.0000,175.0000
1983-05-28 22:00:00 UTC,2445483.416667,28.7317,-95.2428,0109,3.63,-14.55,15.0000,166.0000
1983-05-28 22:30:00 UTC,2445483.437500,28.7317,-95.2428,0109,5.87,-18.07,19.0000,162.0000
1983-05-28 23:00:00 UTC,2445483.458333,28.7317,-95.2428,0109,5.79,-20.19,21.0000,164.0000
1983-05-28 23:30:00 UTC,2445483.479167,28.7317,-95.2428,0109,2.30,-21.88,22.0000,174.0000
1983-05-29 00:00:00 UTC,2445483.500000,28.7317,-95.2428,0109,-2.00,-22.91,23.0000,185.0000
1983-05-29 00:30:00 UTC,2445483.520833,28.7317,-95.2428,0109,-4.99,-23.48,24.0000,192.0000
1983-05-29 01:00:00 UTC,2445483.541667,28.7317,-95.2428,0109,-8.55,-23.49,25.0000,200.0000
1983-05-29 01:30:00 UTC,2445483.562500,28.7317,-95.2428,0109,-14.34,-20.48,25.0000,215.0000
1983-05-29 02:00:00 UTC,2445483.583333,28.7317,-95.2428,0109,-20.49,-16.01,26.0000,232.0000
1983-05-29 02:30:00 UTC,2445483.604167,28.7317,-95.2428,0109,-23.14,-13.91,27.0000,239.0000
1983-05-29 03:00:00 UTC,2445483.625000,28.7317,-95.2428,0109,-22.74,-12.61,26.0000,241.0000
1983-05-29 03:30:00 UTC,2445483.645833,28.7317,-95.2428,0109,-21.93,-9.76,24.0000,246.0000
1983-05-29 04:00:00 UTC,2445483.666667,28.7317,-95.2428,0109,-23.07,-6.62,24.0000,254.0000
1983-05-29 04:30:00 UTC,2445483.687500,28.7317,-95.2428,0109,-22.41,-5.17,23.0000,257.0000
1983-05-29 05:00:00 UTC,2445483.708333,28.7317,-95.2428,0109,-19.23,-5.51,20.0000,254.0000
1983-05-29 05:30:00 UTC,2445483.729167,28.7317,-95.2428,0109,-17.12,-5.56,18.0000,252.0000
1983-05-29 06:00:00 UTC,2445483.750000,28.7317,-95.2428,0109,-15.13,-5.21,16.0000,251.0000
1983-05-29 06:30:00 UTC,2445483.770833,28.7317,-95.2428,0109,-14.00,-5.38,15.0000,249.0000
1983-05-29 07:00:00 UTC,2445483.791667,28.7317,-95.2428,0109,-14.94,-5.73,16.0000,249.0000
1983-05-29 07:30:00 UTC,2445483.812500,28.7317,-95.2428,0109,-13.31,-4.33,14.0000,252.0000
1983-05-29 08:00:00 UTC,2445483.833333,28.7317,-95.2428,0109,-10.72,-2.47,11.0000,257.0000
1983-05-29 08:30:00 UTC,2445483.854167,28.7317,-95.2428,0109,-9.93,-1.22,10.0000,263.0000
1983-05-29 09:00:00 UTC,2445483.875000,28.7317,-95.2428,0109,-9.99,0.35,10.0000,272.0000
1983-05-29 09:30:00 UTC,2445483.895833,28.7317,-95.2428,0109,-9.95,1.05,10.0000,276.0000
1983-05-29 10:00:00 UTC,2445483.916667,28.7317,-95.2428,0109,-8.83,1.72,9.0000,281.0000
1983-05-29 10:30:00 UTC,2445483.937500,28.7317,-95.2428,0109,-7.42,3.00,8.0000,292.0000
1983-05-29 11:00:00 UTC,2445483.958333,28.7317,-95.2428,0109,-7.28,5.29,9.0000,306.0000
1983-05-29 11:30:00 UTC,2445483.979167,28.7317,-95.2428,0109,-5.66,6.99,9.0000,321.0000
1983-05-29 12:00:00 UTC,2445484.000000,28.7317,-95.2428,0109,-3.63,7.13,8.0000,333.0000
1983-05-29 12:30:00 UTC,2445484.020833,28.7317,-95.2428,0109,-1.75,5.74,6.0000,343.0000
1983-05-29 13:00:00 UTC,2445484.041667,28.7317,-95.2428,0109,-0.44,4.98,5.0000,355.0000
1983-05-29 13:30:00 UTC,2445484.062500,28.7317,-95.2428,0109,-0.35,4.99,5.0000,356.0000
1983-05-29 14:00:00 UTC,2445484.083333,28.7317,-95.2428,0109,-1.38,4.81,5.0000,344.0000
1983-05-29 14:30:00 UTC,2445484.104167,28.7317,-95.2428,0109,-2.18,3.35,4.0000,327.0000
1983-05-29 15:00:00 UTC,2445484.125000,28.7317,-95.2428,0109,-3.02,2.62,4.0000,311.0000
1983-05-29 15:30:00 UTC,2445484.145833,28.7317,-95.2428,0109,-3.80,1.24,4.0000,288.0000
1983-05-29 16:00:00 UTC,2445484.166667,28.7317,-95.2428,0109,-5.94,0.84,6.0000,278.0000
1983-05-29 16:30:00 UTC,2445484.187500,28.7317,-95.2428,0109,-6.91,1.10,7.0000,279.0000
1983-05-29 17:00:00 UTC,2445484.208333,28.7317,-95.2428,0109,-5.52,2.34,6.0000,293.0000
1983-05-29 17:30:00 UTC,2445484.229167,28.7317,-95.2428,0109,-3.35,3.72,5.0000,318.0000
1983-05-29 18:00:00 UTC,2445484.250000,28.7317,-95.2428,0109,-1.24,3.80,4.0000,342.0000
1983-05-29 18:30:00 UTC,2445484.270833,28.7317,-95.2428,0109,0.03,2.00,2.0000,1.0000
1983-05-29 19:00:00 UTC,2445484.291667,28.7317,-95.2428,0109,0.28,0.96,1.0000,16.0000
1983-05-29 19:30:00 UTC,2445484.312500,28.7317,-95.2428,0109,0.78,1.84,2.0000,23.0000
1983-05-29 20:00:00 UTC,2445484.333333,28.7317,-95.2428,0109,1.32,2.70,3.0000,26.0000
1983-05-29 20:30:00 UTC,2445484.354167,28.7317,-95.2428,0109,0.91,1.78,2.0000,27.0000
1983-05-29 21:00:00 UTC,2445484.375000,28.7317,-95.2428,0109,0.29,0.96,1.0000,17.0000
1983-05-29 21:30:00 UTC,2445484.395833,28.7317,-95.2428,0109,-0.53,-0.85,1.0000,212.0000
1983-05-29 22:00:00 UTC,2445484.416667,28.7317,-95.2428,0109,-1.08,-2.80,3.0000,201.0000
1983-05-29 22:30:00 UTC,2445484.437500,28.7317,-95.2428,0109,-1.63,-4.73,5.0000,199.0000
1983-05-29 23:00:00 UTC,2445484.458333,28.7317,-95.2428,0109,-2.51,-6.54,7.0000,201.0000
1983-05-29 23:30:00 UTC,2445484.479167,28.7317,-95.2428,0109,-2.34,-7.65,8.0000,197.0000
1983-05-30 00:00:00 UTC,2445484.500000,28.7317,-95.2428,0109,-1.56,-9.88,10.0000,189.0000
1983-05-30 00:30:00 UTC,2445484.520833,28.7317,-95.2428,0109,-1.39,-9.90,10.0000,188.0000
1983-05-30 01:00:00 UTC,2445484.541667,28.7317,-95.2428,0109,-3.40,-10.46,11.0000,198.0000
1983-05-30 01:30:00 UTC,2445484.562500,28.7317,-95.2428,0109,-6.88,-9.83,12.0000,215.0000
1983-05-30 02:00:00 UTC,2445484.583333,28.7317,-95.2428,0109,-10.57,-9.18,14.0000,229.0000
1983-05-30 02:30:00 UTC,2445484.604167,28.7317,-95.2428,0109,-13.71,-8.24,16.0000,239.0000
1983-05-30 03:00:00 UTC,2445484.625000,28.7317,-95.2428,0109,-18.54,-7.49,20.0000,248.0000
1983-05-30 03:30:00 UTC,2445484.645833,28.7317,-95.2428,0109,-24.03,-6.89,25.0000,254.0000
1983-05-30 04:00:00 UTC,2445484.666667,28.7317,-95.2428,0109,-28.26,-6.52,29.0000,257.0000
1983-05-30 04:30:00 UTC,2445484.687500,28.7317,-95.2428,0109,-30.53,-5.38,31.0000,260.0000
1983-05-30 05:00:00 UTC,2445484.708333,28.7317,-95.2428,0109,-31.82,-3.34,32.0000,264.0000
1983-05-30 05:30:00 UTC,2445484.729167,28.7317,-95.2428,0109,-32.95,-1.73,33.0000,267.0000
1983-05-30 06:00:00 UTC,2445484.750000,28.7317,-95.2428,0109,-32.98,-1.15,33.0000,268.0000
1983-05-30 06:30:00 UTC,2445484.770833,28.7317,-95.2428,0109,-32.00,0.56,32.0000,271.0000
1983-05-30 07:00:00 UTC,2445484.791667,28.7317,-95.2428,0109,-30.77,3.78,31.0000,277.0000
1983-05-30 07:30:00 UTC,2445484.812500,28.7317,-95.2428,0109,-27.88,7.99,29.0000,286.0000
1983-05-30 08:00:00 UTC,2445484.833333,28.7317,-95.2428,0109,-24.47,11.41,27.0000,295.0000